FFA426 ENTC-ENSB

Flight info

Callsign FFA426
Flight time 1h 24m
Altitude 35000
Route LOMVI P600 VAVAD/N0449F370 P600 INPAR
Aircraft A320/M-SDE3FGHIRWY/LB1

Departure

Time 2026-05-07 19:30
Airport Tromsø Airport (ENTC)

Arrival

Time 2026-05-07 20:54
Airport Svalbard Airport, Longyear (ENSB)
Time Latitude Longitude Altitude Speed Heading
2026-05-07 19:25 69.68614 18.91390 32 ft 0 kts 284°
2026-05-07 19:26 69.68612 18.91425 32 ft 2 kts 295°
2026-05-07 19:26 69.68603 18.91463 30 ft 2 kts 333°
2026-05-07 19:26 69.68592 18.91474 30 ft 0 kts 22°
2026-05-07 19:27 69.68609 18.91498 32 ft 17 kts 27°
2026-05-07 19:27 69.68723 18.91650 31 ft 12 kts 21°
2026-05-07 19:27 69.68734 18.91663 31 ft 3 kts 24°
2026-05-07 19:28 69.68763 18.91819 30 ft 2 kts 73°
2026-05-07 19:28 69.68760 18.91946 30 ft 8 kts 100°
2026-05-07 19:28 69.68758 18.92093 28 ft 8 kts 79°
2026-05-07 19:28 69.68772 18.92184 28 ft 2 kts 62°
2026-05-07 19:29 69.68799 18.92207 29 ft 2 kts 276°
2026-05-07 19:29 69.68749 18.92152 28 ft 11 kts 191°
2026-05-07 19:29 69.68478 18.91978 35 ft 80 kts 193°
2026-05-07 19:29 69.67681 18.91449 92 ft 145 kts 194°
2026-05-07 19:30 69.66598 18.90737 545 ft 176 kts 194°
2026-05-07 19:30 69.65337 18.89901 1248 ft 195 kts 193°
2026-05-07 19:30 69.63980 18.89010 2195 ft 210 kts 193°
2026-05-07 19:30 69.62473 18.88016 2797 ft 234 kts 193°
2026-05-07 19:31 69.60844 18.86934 3382 ft 250 kts 193°
2026-05-07 19:31 69.59126 18.85567 4235 ft 256 kts 203°
2026-05-07 19:31 69.57654 18.82768 4821 ft 261 kts 226°
2026-05-07 19:31 69.56769 18.78274 5292 ft 264 kts 256°
2026-05-07 19:32 69.56711 18.73046 6272 ft 265 kts 282°
2026-05-07 19:32 69.57473 18.68270 7168 ft 268 kts 309°
2026-05-07 19:32 69.58931 18.65001 8051 ft 271 kts 336°
2026-05-07 19:32 69.60768 18.63618 8941 ft 274 kts 347°
2026-05-07 19:33 69.62651 18.62522 9825 ft 276 kts 347°
2026-05-07 19:33 69.64549 18.61406 10650 ft 279 kts 346°
2026-05-07 19:33 69.66459 18.60266 11428 ft 282 kts 346°
2026-05-07 19:33 69.68402 18.59089 11931 ft 288 kts 346°
2026-05-07 19:34 69.70423 18.57844 12071 ft 302 kts 346°
2026-05-07 19:34 69.72565 18.56515 12091 ft 329 kts 346°
2026-05-07 19:34 69.74888 18.55079 12224 ft 352 kts 346°
2026-05-07 19:34 69.77340 18.53573 12567 ft 366 kts 346°
2026-05-07 19:35 69.79851 18.52037 13186 ft 371 kts 346°
2026-05-07 19:35 69.82351 18.50501 13855 ft 375 kts 346°
2026-05-07 19:35 69.84924 18.48914 14302 ft 384 kts 346°
2026-05-07 19:35 69.87587 18.47257 14435 ft 399 kts 346°
2026-05-07 19:36 69.90328 18.45546 14804 ft 406 kts 346°
2026-05-07 19:36 69.93103 18.43813 15307 ft 409 kts 346°
2026-05-07 19:36 69.95896 18.42074 15868 ft 410 kts 346°
2026-05-07 19:36 69.98681 18.40339 16361 ft 412 kts 346°
2026-05-07 19:37 70.01493 18.38572 16829 ft 414 kts 346°
2026-05-07 19:37 70.04314 18.36789 17273 ft 417 kts 346°
2026-05-07 19:37 70.07163 18.34985 17710 ft 419 kts 346°
2026-05-07 19:37 70.10013 18.33182 18138 ft 421 kts 346°
2026-05-07 19:38 70.12890 18.31357 18513 ft 424 kts 346°
2026-05-07 19:38 70.15774 18.29518 18860 ft 426 kts 346°
2026-05-07 19:38 70.18692 18.27647 19152 ft 429 kts 346°
2026-05-07 19:38 70.21620 18.25772 19476 ft 431 kts 346°
2026-05-07 19:39 70.24525 18.23909 19786 ft 433 kts 346°
2026-05-07 19:39 70.27481 18.22011 20087 ft 435 kts 346°
2026-05-07 19:39 70.30439 18.20109 20395 ft 437 kts 346°
2026-05-07 19:39 70.33414 18.18181 20687 ft 439 kts 346°
2026-05-07 19:40 70.36396 18.16236 20969 ft 440 kts 346°
2026-05-07 19:40 70.39404 18.14266 21267 ft 442 kts 346°
2026-05-07 19:40 70.42405 18.12292 21501 ft 444 kts 346°
2026-05-07 19:40 70.45428 18.10302 21774 ft 445 kts 346°
2026-05-07 19:41 70.48453 18.08303 22018 ft 447 kts 346°
2026-05-07 19:41 70.51504 18.06287 22261 ft 448 kts 346°
2026-05-07 19:41 70.54551 18.04268 22514 ft 449 kts 346°
2026-05-07 19:41 70.57622 18.02232 22720 ft 451 kts 346°
2026-05-07 19:42 70.60673 18.00201 22927 ft 452 kts 347°
2026-05-07 19:42 70.63767 17.98130 23123 ft 453 kts 346°
2026-05-07 19:42 70.66847 17.96062 23319 ft 453 kts 346°
2026-05-07 19:42 70.69888 17.94019 23495 ft 455 kts 347°
2026-05-07 19:43 70.72984 17.91933 23658 ft 456 kts 347°
2026-05-07 19:43 70.76095 17.89827 23782 ft 457 kts 347°
2026-05-07 19:43 70.79192 17.87720 23891 ft 457 kts 347°
2026-05-07 19:43 70.82307 17.85589 24026 ft 458 kts 346°
2026-05-07 19:44 70.85413 17.83458 24146 ft 458 kts 347°
2026-05-07 19:44 70.88526 17.81318 24277 ft 459 kts 347°
2026-05-07 19:44 70.91649 17.79170 24400 ft 459 kts 346°
2026-05-07 19:44 70.94763 17.77017 24525 ft 459 kts 347°
2026-05-07 19:45 70.97876 17.74857 24649 ft 459 kts 347°
2026-05-07 19:45 71.00997 17.72694 24780 ft 459 kts 346°
2026-05-07 19:45 71.04121 17.70522 24903 ft 459 kts 346°
2026-05-07 19:45 71.07226 17.68363 25033 ft 459 kts 347°
2026-05-07 19:46 71.10324 17.66194 25162 ft 460 kts 347°
2026-05-07 19:46 71.13444 17.63991 25285 ft 461 kts 347°
2026-05-07 19:46 71.16551 17.61789 25797 ft 451 kts 347°
2026-05-07 19:46 71.19542 17.59661 26917 ft 433 kts 347°
2026-05-07 19:47 71.22458 17.57586 27583 ft 428 kts 347°
2026-05-07 19:47 71.25354 17.55521 27984 ft 429 kts 347°
2026-05-07 19:47 71.28284 17.53428 28316 ft 430 kts 347°
2026-05-07 19:47 71.31214 17.51340 28633 ft 432 kts 347°
2026-05-07 19:48 71.34147 17.49244 28943 ft 434 kts 347°
2026-05-07 19:48 71.37102 17.47116 29211 ft 437 kts 347°
2026-05-07 19:48 71.40076 17.44959 29465 ft 439 kts 347°
2026-05-07 19:48 71.43024 17.42810 29740 ft 441 kts 347°
2026-05-07 19:49 71.46019 17.40622 30022 ft 442 kts 347°
2026-05-07 19:49 71.49025 17.38415 30231 ft 445 kts 347°
2026-05-07 19:49 71.52044 17.36187 30425 ft 447 kts 347°
2026-05-07 19:49 71.55107 17.33921 30691 ft 446 kts 347°
2026-05-07 19:50 71.58098 17.31706 30949 ft 446 kts 347°
2026-05-07 19:50 71.61121 17.29462 31199 ft 447 kts 347°
2026-05-07 19:50 71.64155 17.27207 31469 ft 447 kts 347°
2026-05-07 19:50 71.67126 17.24993 32400 ft 428 kts 347°
2026-05-07 19:51 71.69993 17.22842 33230 ft 419 kts 347°
2026-05-07 19:51 71.72818 17.20722 33719 ft 416 kts 347°
2026-05-07 19:51 71.75640 17.18605 34062 ft 416 kts 347°
2026-05-07 19:51 71.78461 17.16490 34324 ft 417 kts 347°
2026-05-07 19:52 71.81287 17.14356 34583 ft 417 kts 347°
2026-05-07 19:52 71.84115 17.12208 34845 ft 417 kts 347°
2026-05-07 19:52 71.86936 17.10060 35087 ft 417 kts 347°
2026-05-07 19:52 71.89765 17.07907 35302 ft 419 kts 347°
2026-05-07 19:53 71.92585 17.05746 35683 ft 412 kts 347°
2026-05-07 19:53 71.95346 17.03615 36264 ft 401 kts 347°
2026-05-07 19:53 71.98061 17.01510 36532 ft 402 kts 347°
2026-05-07 19:53 72.00808 16.99688 36656 ft 404 kts 353°
2026-05-07 19:54 72.03611 16.98627 36787 ft 406 kts 354°
2026-05-07 19:54 72.06422 16.97584 36906 ft 409 kts 353°
2026-05-07 19:54 72.09255 16.96531 37070 ft 409 kts 354°
2026-05-07 19:54 72.12059 16.95484 37154 ft 413 kts 353°
2026-05-07 19:55 72.17831 16.93310 37162 ft 423 kts 353°
2026-05-07 19:55 72.23745 16.91072 37164 ft 432 kts 354°
2026-05-07 19:56 72.29781 16.88746 37166 ft 441 kts 353°
2026-05-07 19:56 72.35931 16.86354 37166 ft 449 kts 353°
2026-05-07 19:57 72.42210 16.83918 37175 ft 457 kts 354°
2026-05-07 19:57 72.48566 16.81432 37174 ft 463 kts 353°
2026-05-07 19:58 72.54991 16.78895 37176 ft 467 kts 354°
2026-05-07 19:58 72.61469 16.76306 37179 ft 470 kts 354°
2026-05-07 19:59 72.67982 16.73697 37185 ft 472 kts 353°
2026-05-07 19:59 72.74501 16.71048 37186 ft 473 kts 353°
2026-05-07 20:00 72.81041 16.68382 37192 ft 473 kts 353°
2026-05-07 20:00 72.87566 16.65726 37201 ft 473 kts 354°
2026-05-07 20:01 72.94101 16.63046 37203 ft 473 kts 353°
2026-05-07 20:01 73.00594 16.60379 37204 ft 473 kts 354°
2026-05-07 20:02 73.07129 16.57653 37204 ft 473 kts 353°
2026-05-07 20:02 73.13655 16.54882 37210 ft 473 kts 353°
2026-05-07 20:03 73.20194 16.52090 37218 ft 473 kts 353°
2026-05-07 20:03 73.26728 16.49291 37224 ft 473 kts 353°
2026-05-07 20:04 73.33258 16.46463 37223 ft 473 kts 353°
2026-05-07 20:04 73.39794 16.43619 37227 ft 473 kts 353°
2026-05-07 20:05 73.46322 16.40767 37239 ft 472 kts 353°
2026-05-07 20:05 73.52804 16.37908 37239 ft 472 kts 353°
2026-05-07 20:06 73.59324 16.34987 37243 ft 472 kts 353°
2026-05-07 20:06 73.65845 16.32074 37249 ft 472 kts 354°
2026-05-07 20:07 73.71254 16.29652 37245 ft 472 kts 353°
2026-05-07 20:07 73.77772 16.26686 37250 ft 472 kts 353°
2026-05-07 20:08 73.84288 16.23674 37249 ft 471 kts 353°
2026-05-07 20:08 73.90787 16.20669 37265 ft 471 kts 353°
2026-05-07 20:09 73.97294 16.17664 37249 ft 471 kts 353°
2026-05-07 20:10 74.07034 16.13044 37267 ft 471 kts 353°
2026-05-07 20:10 74.13494 16.09976 37267 ft 471 kts 353°
2026-05-07 20:11 74.20037 16.06870 37267 ft 471 kts 353°
2026-05-07 20:11 74.26487 16.03753 37266 ft 471 kts 353°
2026-05-07 20:12 74.32993 16.00582 37264 ft 471 kts 353°
2026-05-07 20:12 74.39502 15.97385 37261 ft 471 kts 353°
2026-05-07 20:13 74.46008 15.94152 37258 ft 471 kts 353°
2026-05-07 20:13 74.52492 15.90900 37276 ft 471 kts 353°
2026-05-07 20:14 74.59010 15.87633 37280 ft 471 kts 353°
2026-05-07 20:14 74.65469 15.84368 37289 ft 471 kts 353°
2026-05-07 20:15 74.72009 15.81025 37286 ft 471 kts 353°
2026-05-07 20:15 74.78474 15.77679 37289 ft 471 kts 353°
2026-05-07 20:16 74.84967 15.74302 37292 ft 471 kts 353°
2026-05-07 20:16 74.91466 15.70894 37288 ft 471 kts 352°
2026-05-07 20:17 74.97955 15.67432 37296 ft 471 kts 353°
2026-05-07 20:17 75.04456 15.63958 37301 ft 471 kts 352°
2026-05-07 20:18 75.10940 15.60440 37303 ft 471 kts 352°
2026-05-07 20:18 75.17441 15.56937 37304 ft 471 kts 352°
2026-05-07 20:19 75.23883 15.53435 37309 ft 471 kts 353°
2026-05-07 20:19 75.30380 15.49840 37312 ft 470 kts 353°
2026-05-07 20:20 75.36863 15.46209 37314 ft 470 kts 352°
2026-05-07 20:20 75.43346 15.42563 37320 ft 470 kts 353°
2026-05-07 20:21 75.49813 15.38921 37322 ft 470 kts 353°
2026-05-07 20:21 75.56291 15.35222 37319 ft 469 kts 352°
2026-05-07 20:22 75.62764 15.31480 37317 ft 469 kts 352°
2026-05-07 20:22 75.69193 15.27731 37320 ft 469 kts 353°
2026-05-07 20:23 75.75657 15.23934 37325 ft 469 kts 353°
2026-05-07 20:23 75.82124 15.20091 37319 ft 469 kts 352°
2026-05-07 20:24 75.88588 15.16203 37321 ft 469 kts 352°
2026-05-07 20:24 75.95059 15.12286 37333 ft 470 kts 352°
2026-05-07 20:25 76.01529 15.08383 37339 ft 469 kts 352°
2026-05-07 20:25 76.07984 15.04442 37334 ft 469 kts 352°
2026-05-07 20:26 76.14400 15.00433 37334 ft 469 kts 352°
2026-05-07 20:26 76.20865 14.96363 37341 ft 469 kts 352°
2026-05-07 20:27 76.27321 14.92276 37338 ft 469 kts 352°
2026-05-07 20:27 76.33780 14.88168 37343 ft 469 kts 352°
2026-05-07 20:28 76.40236 14.83972 37344 ft 470 kts 352°
2026-05-07 20:28 76.46690 14.79678 37343 ft 470 kts 351°
2026-05-07 20:29 76.53150 14.75355 37347 ft 470 kts 352°
2026-05-07 20:29 76.59622 14.71001 37349 ft 470 kts 351°
2026-05-07 20:30 76.66088 14.66642 37350 ft 470 kts 352°
2026-05-07 20:30 76.72502 14.62289 37353 ft 470 kts 351°
2026-05-07 20:31 76.78962 14.57794 37350 ft 470 kts 351°
2026-05-07 20:31 76.82180 14.55543 36842 ft 467 kts 351°
2026-05-07 20:31 76.85389 14.53284 35983 ft 467 kts 351°
2026-05-07 20:31 76.88592 14.51017 35150 ft 466 kts 351°
2026-05-07 20:32 76.91750 14.48784 34331 ft 465 kts 351°
2026-05-07 20:32 76.94965 14.46492 33302 ft 464 kts 352°
2026-05-07 20:32 76.98155 14.44204 32274 ft 463 kts 352°
2026-05-07 20:32 77.01334 14.41905 31261 ft 462 kts 352°
2026-05-07 20:33 77.04516 14.39605 30187 ft 462 kts 352°
2026-05-07 20:33 77.07684 14.37314 28842 ft 461 kts 352°
2026-05-07 20:33 77.10855 14.35011 27482 ft 463 kts 352°
2026-05-07 20:33 77.14038 14.32682 26750 ft 465 kts 352°
2026-05-07 20:34 77.17235 14.30323 26469 ft 466 kts 352°
2026-05-07 20:34 77.20439 14.27960 26147 ft 466 kts 352°
2026-05-07 20:34 77.23594 14.25629 25316 ft 460 kts 352°
2026-05-07 20:34 77.26744 14.23299 24696 ft 456 kts 352°
2026-05-07 20:35 77.29856 14.20962 24070 ft 451 kts 352°
2026-05-07 20:35 77.32944 14.18628 23408 ft 447 kts 352°
2026-05-07 20:35 77.35919 14.16377 22851 ft 443 kts 352°
2026-05-07 20:35 77.38997 14.14034 22451 ft 429 kts 352°
2026-05-07 20:36 77.41869 14.11838 21927 ft 406 kts 352°
2026-05-07 20:36 77.44614 14.09715 21158 ft 392 kts 352°
2026-05-07 20:36 77.47215 14.07685 20862 ft 368 kts 352°
2026-05-07 20:36 77.49686 14.05759 20416 ft 350 kts 352°
2026-05-07 20:37 77.52054 14.03916 20000 ft 347 kts 352°
2026-05-07 20:37 77.54395 14.02104 19561 ft 345 kts 352°
2026-05-07 20:37 77.56754 14.00281 19123 ft 343 kts 352°
2026-05-07 20:37 77.59117 13.98453 18671 ft 343 kts 352°
2026-05-07 20:38 77.61467 13.96613 18164 ft 342 kts 353°
2026-05-07 20:38 77.63806 13.94758 17711 ft 339 kts 352°
2026-05-07 20:38 77.66123 13.92909 17250 ft 336 kts 352°
2026-05-07 20:38 77.68417 13.91079 16797 ft 334 kts 352°
2026-05-07 20:39 77.70718 13.89245 16341 ft 333 kts 352°
2026-05-07 20:39 77.72990 13.87426 15890 ft 332 kts 352°
2026-05-07 20:39 77.75257 13.85605 15439 ft 331 kts 352°
2026-05-07 20:39 77.77514 13.83788 14988 ft 329 kts 352°
2026-05-07 20:40 77.79769 13.81972 14523 ft 329 kts 352°
2026-05-07 20:40 77.82016 13.80150 14074 ft 328 kts 352°
2026-05-07 20:40 77.84265 13.78305 13580 ft 326 kts 352°
2026-05-07 20:40 77.86469 13.76480 13126 ft 324 kts 352°
2026-05-07 20:41 77.88702 13.74634 12650 ft 321 kts 352°
2026-05-07 20:41 77.90891 13.72826 12195 ft 319 kts 352°
2026-05-07 20:41 77.93043 13.71047 11735 ft 317 kts 352°
2026-05-07 20:41 77.95206 13.69248 11266 ft 315 kts 351°
2026-05-07 20:42 77.97361 13.67456 10850 ft 312 kts 351°
2026-05-07 20:42 77.99417 13.65729 10694 ft 288 kts 351°
2026-05-07 20:42 78.01322 13.64112 10523 ft 268 kts 351°
2026-05-07 20:42 78.03108 13.62591 10222 ft 259 kts 351°
2026-05-07 20:43 78.04889 13.61094 10088 ft 261 kts 351°
2026-05-07 20:43 78.06673 13.59585 9943 ft 261 kts 351°
2026-05-07 20:43 78.08464 13.58046 9817 ft 261 kts 351°
2026-05-07 20:43 78.10243 13.56512 9666 ft 259 kts 351°
2026-05-07 20:44 78.11984 13.55009 9522 ft 249 kts 351°
2026-05-07 20:44 78.13656 13.53622 9380 ft 239 kts 355°
2026-05-07 20:44 78.15293 13.54325 8917 ft 236 kts 21°
2026-05-07 20:44 78.16653 13.58437 8485 ft 230 kts 46°
2026-05-07 20:45 78.17623 13.64624 8107 ft 230 kts 54°
2026-05-07 20:45 78.18549 13.70973 7731 ft 229 kts 54°
2026-05-07 20:45 78.19455 13.77225 7356 ft 228 kts 54°
2026-05-07 20:45 78.20359 13.83488 6984 ft 227 kts 54°
2026-05-07 20:46 78.21270 13.89791 6747 ft 225 kts 54°
2026-05-07 20:46 78.22173 13.96054 6689 ft 225 kts 54°
2026-05-07 20:46 78.23066 14.02269 6267 ft 222 kts 54°
2026-05-07 20:46 78.24037 14.08173 5707 ft 222 kts 42°
2026-05-07 20:47 78.25213 14.12570 5561 ft 204 kts 33°
2026-05-07 20:47 78.26344 14.16329 5413 ft 189 kts 33°
2026-05-07 20:47 78.27413 14.19911 5178 ft 182 kts 33°
2026-05-07 20:47 78.28449 14.23374 5050 ft 178 kts 33°
2026-05-07 20:48 78.29394 14.27368 4562 ft 181 kts 50°
2026-05-07 20:48 78.30024 14.32698 4133 ft 181 kts 69°
2026-05-07 20:48 78.30258 14.38690 4013 ft 180 kts 87°
2026-05-07 20:48 78.30059 14.44783 4011 ft 175 kts 102°
2026-05-07 20:49 78.29780 14.50224 3989 ft 156 kts 102°
2026-05-07 20:49 78.29517 14.55294 3876 ft 154 kts 102°
2026-05-07 20:49 78.29253 14.60369 3700 ft 152 kts 102°
2026-05-07 20:49 78.28992 14.65376 3498 ft 148 kts 102°
2026-05-07 20:50 78.28740 14.70182 3290 ft 143 kts 102°
2026-05-07 20:50 78.28491 14.74909 3085 ft 142 kts 103°
2026-05-07 20:50 78.28245 14.79565 2916 ft 140 kts 103°
2026-05-07 20:50 78.28001 14.84162 2689 ft 138 kts 103°
2026-05-07 20:51 78.27758 14.88734 2478 ft 137 kts 104°
2026-05-07 20:51 78.27517 14.93263 2270 ft 137 kts 104°
2026-05-07 20:51 78.27275 14.97777 2064 ft 136 kts 105°
2026-05-07 20:51 78.27033 15.02289 1886 ft 136 kts 105°
2026-05-07 20:52 78.26792 15.06755 1662 ft 135 kts 105°
2026-05-07 20:52 78.26554 15.11164 1447 ft 134 kts 105°
2026-05-07 20:52 78.26314 15.15571 1246 ft 133 kts 105°
2026-05-07 20:52 78.26077 15.19939 1051 ft 132 kts 105°
2026-05-07 20:53 78.25919 15.22822 924 ft 131 kts 105°
2026-05-07 20:53 78.25608 15.28518 687 ft 130 kts 105°
2026-05-07 20:53 78.25372 15.32803 516 ft 129 kts 105°
2026-05-07 20:53 78.25137 15.37070 335 ft 129 kts 105°
2026-05-07 20:54 78.24902 15.41299 120 ft 128 kts 105°
2026-05-07 20:54 78.24752 15.43992 89 ft 110 kts 105°
2026-05-07 20:54 78.24612 15.46485 89 ft 54 kts 105°
2026-05-07 20:54 78.24553 15.47813 91 ft 25 kts 86°
2026-05-07 20:55 78.24593 15.48496 89 ft 15 kts 76°
2026-05-07 20:55 78.24613 15.48669 90 ft 8 kts 52°
2026-05-07 20:55 78.24629 15.48877 89 ft 5 kts 77°
2026-05-07 20:55 78.24638 15.49056 89 ft 5 kts 75°
2026-05-07 20:56 78.24644 15.49163 89 ft 0 kts 75°
2026-05-07 20:56 78.24646 15.49198 89 ft 0 kts 76°
2026-05-07 20:57 78.24647 15.49224 90 ft 0 kts 76°